| time (UTC) | temp F | wind direction | speed knots | gust knots | rain 1hr in | rain 24hr in | rain mn in | humidity % | barometer mb |
| 20260904193503 | 95 | 216 | 7.8 | 16.5 | 0.00 | 0.03 | 0.03 | 45 | 1013.1 |
| 20260904193003 | 95 | 175 | 7.0 | 16.5 | 0.00 | 0.03 | 0.03 | 44 | 1013.1 |
| 20260904192503 | 94 | 206 | 11.3 | 16.5 | 0.00 | 0.03 | 0.03 | 44 | 1013.1 |
| 20260904192003 | 94 | 215 | 10.4 | 17.4 | 0.00 | 0.03 | 0.03 | 44 | 1013.2 |
| 20260904191503 | 94 | 201 | 7.8 | 17.4 | 0.00 | 0.03 | 0.03 | 43 | 1013.2 |
| 20260904191003 | 95 | 209 | 16.5 | 16.5 | 0.00 | 0.03 | 0.03 | 42 | 1013.3 |
| 20260904190503 | 94 | 132 | 15.6 | 18.2 | 0.00 | 0.03 | 0.03 | 42 | 1013.4 |
| 20260904190003 | 93 | 194 | 6.1 | 18.2 | 0.00 | 0.03 | 0.03 | 44 | 1013.5 |
| 20260904184503 | 94 | 150 | 11.3 | 17.4 | 0.00 | 0.03 | 0.03 | 45 | 1013.6 |
| 20260904184002 | 93 | 155 | 16.5 | 17.4 | 0.00 | 0.03 | 0.03 | 45 | 1013.6 |
| 20260904182503 | 93 | 145 | 14.8 | 15.6 | 0.00 | 0.03 | 0.03 | 41 | 1013.9 |
| 20260904182002 | 92 | 198 | 8.7 | 15.6 | 0.00 | 0.03 | 0.03 | 41 | 1014.1 |
| 20260904181502 | 92 | 223 | 13.9 | 16.5 | 0.00 | 0.03 | 0.03 | 42 | 1014.1 |
| 20260904181002 | 91 | 201 | 13.9 | 16.5 | 0.00 | 0.03 | 0.03 | 42 | 1014.2 |
| 20260904180502 | 91 | 197 | 12.2 | 16.5 | 0.00 | 0.03 | 0.03 | 42 | 1014.2 |
| 20260904175502 | 91 | 211 | 11.3 | 16.5 | 0.00 | 0.03 | 0.03 | 47 | 1014.3 |
| 20260904175002 | 91 | 168 | 11.3 | 16.5 | 0.00 | 0.03 | 0.03 | 45 | 1014.3 |
| 20260904174532 | 92 | 188 | 11.3 | 16.5 | 0.00 | 0.03 | 0.03 | 44 | 1014.3 |
| 20260904174003 | 91 | 161 | 10.4 | 13.9 | 0.00 | 0.03 | 0.03 | 50 | 1014.3 |
| 20260904173502 | 91 | 201 | 12.2 | 14.8 | 0.00 | 0.03 | 0.03 | 51 | 1014.4 |
| 20260904173002 | 91 | 163 | 12.2 | 14.8 | 0.00 | 0.03 | 0.03 | 50 | 1014.5 |
| 20260904172002 | 89 | 191 | 6.1 | 13.9 | 0.00 | 0.03 | 0.03 | 56 | 1014.8 |
| 20260904171502 | 89 | 203 | 10.4 | 14.8 | 0.00 | 0.03 | 0.03 | 57 | 1014.7 |
| 20260904171001 | 88 | 223 | 13.9 | 14.8 | 0.00 | 0.03 | 0.03 | 57 | 1014.8 |
| 20260904165501 | 88 | 175 | 9.6 | 12.2 | 0.00 | 0.03 | 0.03 | 55 | 1014.9 |
| 20260904165001 | 88 | 213 | 11.3 | 13.0 | 0.00 | 0.03 | 0.03 | 55 | 1015.0 |
| 20260904164502 | 87 | 185 | 7.0 | 15.6 | 0.00 | 0.03 | 0.03 | 56 | 1015.1 |
| 20260904164002 | 87 | 215 | 13.9 | 15.6 | 0.00 | 0.03 | 0.03 | 55 | 1015.1 |
| 20260904163502 | 86 | 204 | 10.4 | 13.0 | 0.00 | 0.03 | 0.03 | 57 | 1015.1 |
| 20260904162501 | 86 | 204 | 11.3 | 14.8 | 0.00 | 0.03 | 0.03 | 58 | 1015.1 |
| 20260904162001 | 86 | 215 | 10.4 | 14.8 | 0.00 | 0.03 | 0.03 | 62 | 1015.1 |
| 20260904161001 | 85 | 195 | 10.4 | 12.2 | 0.00 | 0.03 | 0.03 | 66 | 1015.2 |
| 20260904160001 | 84 | 209 | 11.3 | 12.2 | 0.01 | 0.03 | 0.03 | 66 | 1015.2 |
| 20260904155501 | 84 | 202 | 9.6 | 12.2 | 0.01 | 0.03 | 0.03 | 67 | 1015.2 |
| 20260904155001 | 84 | 217 | 7.0 | 12.2 | 0.01 | 0.03 | 0.03 | 68 | 1015.1 |
| 20260904154501 | 84 | 198 | 9.6 | 12.2 | 0.02 | 0.03 | 0.03 | 68 | 1015.2 |
| 20260904154001 | 84 | 196 | 10.4 | 12.2 | 0.03 | 0.03 | 0.03 | 69 | 1015.1 |
| 20260904153001 | 84 | 158 | 6.1 | 11.3 | 0.03 | 0.03 | 0.03 | 71 | 1015.1 |
| 20260904152501 | 84 | 194 | 8.7 | 11.3 | 0.03 | 0.03 | 0.03 | 71 | 1015.1 |
| 20260904152001 | 84 | 192 | 7.8 | 15.6 | 0.03 | 0.03 | 0.03 | 71 | 1015.0 |
| 20260904151501 | 83 | 195 | 12.2 | 15.6 | 0.03 | 0.03 | 0.03 | 69 | 1015.0 |
| 20260904145501 | 81 | 170 | 7.0 | 10.4 | 0.02 | 0.02 | 0.02 | 81 | 1015.0 |
| 20260904144501 | 82 | 210 | 5.2 | 7.8 | 0.01 | 0.01 | 0.01 | 80 | 1015.0 |
| 20260904143500 | 82 | 184 | 5.2 | 9.6 | 0.00 | 0.00 | 0.00 | 80 | 1014.9 |
| 20260904143000 | 82 | 195 | 7.8 | 10.4 | 0.00 | 0.00 | 0.00 | 78 | 1014.9 |
| 20260904142530 | 82 | 178 | 8.7 | 10.4 | 0.00 | 0.00 | 0.00 | 80 | 1014.8 |
| 20260904142000 | 81 | 177 | 7.0 | 10.4 | 0.00 | 0.00 | 0.00 | 82 | 1014.9 |
| 20260904141500 | 81 | 160 | 7.0 | 10.4 | 0.00 | 0.00 | 0.00 | 83 | 1014.8 |
| 20260904141001 | 80 | 163 | 6.1 | 10.4 | 0.00 | 0.00 | 0.00 | 84 | 1014.8 |
| 20260904140500 | 80 | 144 | 7.8 | 10.4 | 0.00 | 0.00 | 0.00 | 85 | 1014.8 |
| 20260904140000 | 80 | 169 | 8.7 | 11.3 | 0.00 | 0.00 | 0.00 | 85 | 1014.8 |
| 20260904135500 | 80 | 0 | 0.0 | 11.3 | 0.00 | 0.00 | 0.00 | 86 | 1014.8 |
| 20260904135000 | 80 | 131 | 8.7 | 10.4 | 0.00 | 0.00 | 0.00 | 87 | 1014.7 |
| 20260904134502 | 80 | 147 | 7.0 | 11.3 | 0.00 | 0.00 | 0.00 | 88 | 1014.7 |
| 20260904134000 | 79 | 0 | 0.0 | 11.3 | 0.00 | 0.00 | 0.00 | 88 | 1014.6 |
| 20260904133501 | 79 | 0 | 0.0 | 11.3 | 0.00 | 0.00 | 0.00 | 88 | 1014.6 |
| 20260904132001 | 79 | 156 | 4.3 | 9.6 | 0.00 | 0.00 | 0.00 | 89 | 1014.4 |
| 20260904131500 | 79 | 146 | 7.8 | 8.7 | 0.00 | 0.00 | 0.00 | 89 | 1014.4 |
| 20260904130501 | 79 | 137 | 5.2 | 8.7 | 0.00 | 0.00 | 0.00 | 89 | 1014.4 |
| 20260904125459 | 78 | 145 | 6.1 | 7.8 | 0.00 | 0.00 | 0.00 | 89 | 1014.3 |
| 20260904124959 | 78 | 146 | 6.1 | 9.6 | 0.00 | 0.00 | 0.00 | 89 | 1014.2 |
| 20260904123959 | 78 | 157 | 7.8 | 8.7 | 0.00 | 0.00 | 0.00 | 89 | 1014.1 |
| 20260904123459 | 78 | 167 | 5.2 | 9.6 | 0.00 | 0.00 | 0.00 | 89 | 1014.1 |
| 20260904122959 | 78 | 138 | 6.1 | 9.6 | 0.00 | 0.00 | 0.00 | 89 | 1014.1 |
| 20260904122459 | 78 | 116 | 5.2 | 8.7 | 0.00 | 0.00 | 0.00 | 89 | 1014.1 |
| 20260904121959 | 78 | 132 | 6.1 | 7.8 | 0.00 | 0.00 | 0.00 | 89 | 1014.0 |
| 20260904120959 | 78 | 142 | 7.0 | 7.0 | 0.00 | 0.00 | 0.00 | 90 | 1013.9 |
| 20260904120459 | 78 | 143 | 6.1 | 8.7 | 0.00 | 0.00 | 0.00 | 90 | 1013.7 |
| 20260904115959 | 78 | 149 | 6.1 | 8.7 | 0.00 | 0.00 | 0.00 | 90 | 1013.7 |
| 20260904115459 | 78 | 146 | 7.0 | 8.7 | 0.00 | 0.00 | 0.00 | 90 | 1013.6 |
| 20260904114959 | 78 | 127 | 6.1 | 7.8 | 0.00 | 0.00 | 0.00 | 90 | 1013.7 |
| 20260904114529 | 78 | 136 | 7.0 | 7.8 | 0.00 | 0.00 | 0.00 | 90 | 1013.7 |
| 20260904113959 | 78 | 131 | 6.1 | 7.8 | 0.00 | 0.00 | 0.00 | 89 | 1013.7 |
| 20260904113529 | 78 | 123 | 7.8 | 7.8 | 0.00 | 0.00 | 0.00 | 89 | 1013.7 |
| 20260904113029 | 78 | 125 | 6.1 | 7.0 | 0.00 | 0.00 | 0.00 | 88 | 1013.7 |
| 20260904111959 | 78 | 138 | 5.2 | 7.8 | 0.00 | 0.00 | 0.00 | 88 | 1013.5 |
| 20260904111459 | 78 | 156 | 7.0 | 7.8 | 0.00 | 0.00 | 0.00 | 88 | 1013.5 |
| 20260904110959 | 79 | 149 | 7.0 | 8.7 | 0.00 | 0.00 | 0.00 | 87 | 1013.5 |
| 20260904110458 | 79 | 145 | 6.1 | 8.7 | 0.00 | 0.00 | 0.00 | 87 | 1013.6 |
| 20260904105958 | 79 | 145 | 6.1 | 9.6 | 0.00 | 0.00 | 0.00 | 87 | 1013.6 |
| 20260904105459 | 79 | 139 | 8.7 | 9.6 | 0.00 | 0.00 | 0.00 | 87 | 1013.7 |
| 20260904104958 | 79 | 134 | 7.0 | 9.6 | 0.00 | 0.00 | 0.00 | 86 | 1013.7 |
| 20260904104458 | 79 | 145 | 9.6 | 9.6 | 0.00 | 0.00 | 0.00 | 86 | 1013.6 |
| 20260904103458 | 79 | 160 | 6.1 | 9.6 | 0.00 | 0.00 | 0.00 | 86 | 1013.5 |
| 20260904102959 | 79 | 153 | 7.0 | 9.6 | 0.00 | 0.00 | 0.00 | 86 | 1013.4 |
| 20260904102459 | 79 | 162 | 8.7 | 9.6 | 0.00 | 0.00 | 0.00 | 86 | 1013.4 |
| 20260904101958 | 79 | 150 | 7.0 | 9.6 | 0.00 | 0.00 | 0.00 | 86 | 1013.4 |
| 20260904101459 | 79 | 160 | 8.7 | 9.6 | 0.00 | 0.00 | 0.00 | 86 | 1013.4 |
| 20260904100958 | 79 | 156 | 6.1 | 9.6 | 0.00 | 0.00 | 0.00 | 86 | 1013.4 |
| 20260904100458 | 79 | 159 | 7.8 | 9.6 | 0.00 | 0.00 | 0.00 | 85 | 1013.4 |
| 20260904100028 | 79 | 154 | 7.0 | 8.7 | 0.00 | 0.00 | 0.00 | 85 | 1013.4 |
| 20260904095459 | 79 | 148 | 6.1 | 9.6 | 0.00 | 0.00 | 0.00 | 85 | 1013.5 |
| 20260904094958 | 79 | 152 | 6.1 | 9.6 | 0.00 | 0.00 | 0.00 | 85 | 1013.4 |
| 20260904093958 | 79 | 131 | 6.1 | 10.4 | 0.00 | 0.00 | 0.00 | 84 | 1013.4 |
| 20260904093529 | 79 | 131 | 6.1 | 7.8 | 0.00 | 0.00 | 0.00 | 84 | 1013.4 |
| 20260904092958 | 80 | 131 | 7.0 | 9.6 | 0.00 | 0.00 | 0.00 | 83 | 1013.3 |
| 20260904092458 | 80 | 156 | 5.2 | 9.6 | 0.00 | 0.00 | 0.00 | 83 | 1013.3 |
| 20260904091958 | 80 | 192 | 6.1 | 9.6 | 0.00 | 0.00 | 0.00 | 83 | 1013.2 |
| 20260904091458 | 80 | 170 | 4.3 | 9.6 | 0.00 | 0.00 | 0.00 | 83 | 1013.2 |
| 20260904090958 | 80 | 163 | 7.8 | 10.4 | 0.00 | 0.00 | 0.00 | 83 | 1013.2 |
| 20260904090458 | 80 | 172 | 8.7 | 10.4 | 0.00 | 0.00 | 0.00 | 83 | 1013.2 |
| 20260904085958 | 80 | 158 | 4.3 | 9.6 | 0.00 | 0.00 | 0.00 | 83 | 1013.2 |
| 20260904085458 | 80 | 158 | 7.0 | 10.4 | 0.00 | 0.00 | 0.00 | 83 | 1013.2 |
| 20260904084958 | 80 | 165 | 6.1 | 10.4 | 0.00 | 0.00 | 0.00 | 82 | 1013.2 |
| 20260904084458 | 79 | 177 | 7.0 | 9.6 | 0.00 | 0.00 | 0.00 | 82 | 1013.2 |
| 20260904083957 | 80 | 187 | 5.2 | 9.6 | 0.00 | 0.00 | 0.00 | 82 | 1013.2 |
| 20260904082957 | 80 | 144 | 6.1 | 9.6 | 0.00 | 0.00 | 0.00 | 81 | 1013.2 |
| 20260904082457 | 80 | 151 | 6.1 | 9.6 | 0.00 | 0.00 | 0.00 | 81 | 1013.2 |
| 20260904081958 | 80 | 149 | 6.1 | 8.7 | 0.00 | 0.00 | 0.00 | 81 | 1013.2 |
| 20260904081457 | 80 | 158 | 7.0 | 8.7 | 0.00 | 0.00 | 0.00 | 81 | 1013.2 |
| 20260904080958 | 80 | 156 | 4.3 | 8.7 | 0.00 | 0.00 | 0.00 | 81 | 1013.2 |
| 20260904080457 | 80 | 160 | 6.1 | 8.7 | 0.00 | 0.00 | 0.00 | 80 | 1013.2 |
| 20260904080027 | 80 | 166 | 7.0 | 8.7 | 0.00 | 0.00 | 0.00 | 80 | 1013.2 |
| 20260904075528 | 80 | 165 | 6.1 | 7.8 | 0.00 | 0.00 | 0.00 | 80 | 1013.2 |
| 20260904075027 | 80 | 178 | 5.2 | 8.7 | 0.00 | 0.00 | 0.00 | 80 | 1013.2 |
| 20260904074528 | 80 | 197 | 5.2 | 8.7 | 0.00 | 0.00 | 0.00 | 80 | 1013.2 |
| 20260904073957 | 80 | 141 | 4.3 | 7.8 | 0.00 | 0.00 | 0.00 | 79 | 1013.2 |
| 20260904073458 | 80 | 150 | 5.2 | 7.8 | 0.00 | 0.00 | 0.00 | 79 | 1013.2 |
| 20260904072958 | 80 | 135 | 3.5 | 8.7 | 0.00 | 0.00 | 0.00 | 79 | 1013.3 |
| 20260904071957 | 80 | 178 | 4.3 | 10.4 | 0.00 | 0.00 | 0.00 | 79 | 1013.4 |
| 20260904071457 | 80 | 166 | 9.6 | 10.4 | 0.00 | 0.00 | 0.00 | 79 | 1013.4 |
| 20260904070957 | 79 | 172 | 7.8 | 9.6 | 0.00 | 0.00 | 0.00 | 78 | 1013.4 |
| 20260904070027 | 79 | 145 | 6.1 | 8.7 | 0.00 | 0.00 | 0.00 | 76 | 1013.5 |
| 20260904065457 | 79 | 149 | 7.0 | 7.8 | 0.00 | 0.00 | 0.00 | 76 | 1013.5 |
| 20260904064957 | 79 | 149 | 7.0 | 10.4 | 0.00 | 0.00 | 0.00 | 75 | 1013.5 |
| 20260904064457 | 79 | 151 | 7.8 | 10.4 | 0.00 | 0.00 | 0.00 | 75 | 1013.5 |
| 20260904062957 | 79 | 149 | 7.8 | 10.4 | 0.00 | 0.00 | 0.00 | 74 | 1013.5 |
| 20260904062527 | 79 | 154 | 8.7 | 9.6 | 0.00 | 0.00 | 0.00 | 74 | 1013.5 |
| 20260904062026 | 79 | 140 | 7.8 | 8.7 | 0.00 | 0.00 | 0.00 | 74 | 1013.5 |
| 20260904061526 | 79 | 139 | 7.8 | 8.7 | 0.00 | 0.00 | 0.00 | 74 | 1013.5 |
| 20260904060526 | 80 | 154 | 7.0 | 7.8 | 0.00 | 0.00 | 0.00 | 74 | 1013.5 |
| 20260904060026 | 80 | 125 | 6.1 | 7.8 | 0.00 | 0.00 | 0.00 | 74 | 1013.5 |
| 20260904055526 | 80 | 151 | 7.0 | 7.8 | 0.00 | 0.00 | 0.00 | 74 | 1013.6 |
| 20260904054956 | 80 | 128 | 5.2 | 9.6 | 0.00 | 0.00 | 0.00 | 74 | 1013.6 |
| 20260904054457 | 80 | 145 | 6.1 | 9.6 | 0.00 | 0.00 | 0.00 | 73 | 1013.6 |
| 20260904053956 | 80 | 154 | 7.8 | 9.6 | 0.00 | 0.00 | 0.00 | 73 | 1013.5 |
| 20260904053456 | 80 | 154 | 8.7 | 9.6 | 0.00 | 0.00 | 0.00 | 73 | 1013.5 |
| 20260904052957 | 80 | 141 | 9.6 | 10.4 | 0.00 | 0.00 | 0.00 | 73 | 1013.6 |
| 20260904052456 | 80 | 144 | 7.0 | 10.4 | 0.00 | 0.00 | 0.00 | 73 | 1013.6 |
| 20260904051956 | 80 | 146 | 7.8 | 9.6 | 0.00 | 0.00 | 0.00 | 73 | 1013.6 |
| 20260904051456 | 80 | 161 | 7.8 | 10.4 | 0.00 | 0.00 | 0.00 | 73 | 1013.6 |
| 20260904050956 | 80 | 145 | 9.6 | 10.4 | 0.00 | 0.00 | 0.00 | 73 | 1013.4 |
| 20260904050456 | 80 | 129 | 10.4 | 10.4 | 0.00 | 0.00 | 0.00 | 73 | 1013.4 |
| 20260904050029 | 80 | 133 | 7.8 | 10.4 | 0.00 | 0.00 | 0.00 | 73 | 1013.4 |
| 20260904045458 | 80 | 137 | 6.1 | 10.4 | 0.00 | 0.00 | 0.00 | 72 | 1013.4 |
| 20260904044955 | 80 | 127 | 8.7 | 11.3 | 0.00 | 0.00 | 0.00 | 72 | 1013.4 |
| 20260904044456 | 81 | 131 | 7.8 | 11.3 | 0.00 | 0.00 | 0.00 | 72 | 1013.3 |
| 20260904043527 | 81 | 0 | 0.0 | 13.0 | 0.00 | 0.00 | 0.00 | 70 | 1013.2 |
| 20260904043025 | 81 | 137 | 9.6 | 12.2 | 0.00 | 0.00 | 0.00 | 70 | 1013.2 |
| 20260904042456 | 81 | 0 | 0.0 | 11.3 | 0.00 | 0.00 | 0.00 | 70 | 1013.2 |
| 20260904041955 | 81 | 142 | 9.6 | 11.3 | 0.00 | 0.00 | 0.00 | 70 | 1013.2 |
| 20260904041455 | 82 | 139 | 8.7 | 11.3 | 0.00 | 0.00 | 0.00 | 69 | 1013.2 |
| 20260904040525 | 82 | 0 | 0.0 | 11.3 | 0.00 | 0.00 | 0.00 | 70 | 1013.2 |
| 20260904040025 | 82 | 141 | 7.8 | 9.6 | 0.00 | 0.00 | 0.00 | 71 | 1013.3 |
| 20260904035525 | 82 | 134 | 7.8 | 13.0 | 0.00 | 0.00 | 0.00 | 72 | 1013.4 |
| 20260904035025 | 82 | 136 | 8.7 | 13.0 | 0.00 | 0.00 | 0.00 | 72 | 1013.4 |
| 20260904034526 | 82 | 142 | 10.4 | 11.3 | 0.00 | 0.00 | 0.00 | 72 | 1013.3 |
| 20260904034024 | 82 | 137 | 9.6 | 10.4 | 0.00 | 0.00 | 0.00 | 73 | 1013.4 |
| 20260904033025 | 82 | 156 | 7.8 | 11.3 | 0.00 | 0.00 | 0.00 | 73 | 1013.3 |
| 20260904032524 | 82 | 156 | 10.4 | 11.3 | 0.00 | 0.00 | 0.00 | 72 | 1013.3 |
| 20260904031025 | 83 | 0 | 0.0 | 11.3 | 0.00 | 0.00 | 0.00 | 72 | 1013.2 |
| 20260904030526 | 83 | 0 | 0.0 | 10.4 | 0.00 | 0.00 | 0.00 | 72 | 1013.2 |
| 20260904030024 | 83 | 0 | 0.0 | 0.0 | 0.00 | 0.00 | 0.00 | 71 | 1013.2 |
| 20260904025524 | 83 | 0 | 0.0 | 0.0 | 0.00 | 0.00 | 0.00 | 71 | 1013.1 |
| 20260904025024 | 84 | 0 | 0.0 | 11.3 | 0.00 | 0.00 | 0.00 | 70 | 1013.0 |
| 20260904024456 | 84 | 0 | 0.0 | 13.9 | 0.00 | 0.00 | 0.00 | 69 | 1012.9 |
| 20260904024024 | 84 | 0 | 0.0 | 13.9 | 0.00 | 0.00 | 0.00 | 66 | 1013.0 |
| 20260904022955 | 85 | 0 | 0.0 | 13.9 | 0.00 | 0.00 | 0.00 | 65 | 1012.7 |
| 20260904022456 | 85 | 119 | 12.2 | 13.9 | 0.00 | 0.00 | 0.00 | 64 | 1012.6 |
| 20260904022024 | 85 | 123 | 10.4 | 13.0 | 0.00 | 0.00 | 0.00 | 64 | 1012.6 |
| 20260904021526 | 85 | 0 | 0.0 | 13.0 | 0.00 | 0.00 | 0.00 | 64 | 1012.5 |
| 20260904020524 | 85 | 120 | 13.0 | 13.9 | 0.00 | 0.00 | 0.00 | 64 | 1012.2 |
| 20260904020025 | 86 | 0 | 0.0 | 13.0 | 0.00 | 0.00 | 0.00 | 64 | 1012.1 |
| 20260904014524 | 86 | 121 | 13.0 | 13.9 | 0.00 | 0.00 | 0.00 | 64 | 1011.8 |
| 20260904014023 | 86 | 132 | 10.4 | 13.9 | 0.00 | 0.00 | 0.00 | 64 | 1011.8 |
| 20260904013525 | 86 | 119 | 12.2 | 14.8 | 0.00 | 0.00 | 0.00 | 64 | 1011.7 |
| 20260904012026 | 87 | 121 | 13.0 | 15.6 | 0.00 | 0.00 | 0.00 | 63 | 1011.5 |
| 20260904011023 | 87 | 0 | 0.0 | 15.6 | 0.00 | 0.00 | 0.00 | 63 | 1011.4 |
| 20260904010454 | 87 | 0 | 0.0 | 16.5 | 0.00 | 0.00 | 0.00 | 63 | 1011.5 |
| 20260904005953 | 87 | 123 | 12.2 | 16.5 | 0.00 | 0.00 | 0.00 | 62 | 1011.4 |
| 20260904005525 | 87 | 0 | 0.0 | 16.5 | 0.00 | 0.00 | 0.00 | 62 | 1011.3 |
| 20260904004955 | 87 | 139 | 9.6 | 13.9 | 0.00 | 0.00 | 0.00 | 62 | 1011.3 |
| 20260904004454 | 88 | 152 | 8.7 | 13.9 | 0.00 | 0.00 | 0.00 | 62 | 1011.4 |
| 20260904004025 | 88 | 141 | 9.6 | 13.9 | 0.00 | 0.00 | 0.00 | 62 | 1011.3 |
| 20260904003523 | 88 | 132 | 11.3 | 13.9 | 0.00 | 0.00 | 0.00 | 62 | 1011.3 |
| 20260904002953 | 88 | 137 | 12.2 | 13.9 | 0.00 | 0.00 | 0.00 | 61 | 1011.3 |
| 20260904002023 | 89 | 132 | 8.7 | 18.2 | 0.00 | 0.00 | 0.00 | 61 | 1011.2 |
| 20260904000523 | 89 | 130 | 7.8 | 14.8 | 0.00 | 0.00 | 0.00 | 61 | 1011.1 |
| 20260904000023 | 89 | 118 | 9.6 | 14.8 | 0.00 | 0.00 | 0.00 | 61 | 1011.1 |
| 20260903235523 | 89 | 131 | 6.1 | 15.6 | 0.00 | 0.00 | 0.00 | 62 | 1011.1 |
| 20260903235023 | 89 | 100 | 10.4 | 15.6 | 0.00 | 0.00 | 0.00 | 61 | 1011.1 |
| 20260903234524 | 89 | 116 | 12.2 | 13.0 | 0.00 | 0.00 | 0.00 | 61 | 1011.1 |
| 20260903233523 | 89 | 125 | 7.8 | 8.7 | 0.00 | 0.00 | 0.00 | 59 | 1011.2 |
| 20260903233024 | 89 | 153 | 6.1 | 13.0 | 0.00 | 0.00 | 0.00 | 60 | 1011.2 |
| 20260903232454 | 89 | 146 | 5.2 | 13.0 | 0.00 | 0.00 | 0.00 | 60 | 1011.1 |
| 20260903231953 | 89 | 118 | 12.2 | 13.0 | 0.00 | 0.00 | 0.00 | 60 | 1011.1 |
| 20260903231522 | 89 | 138 | 7.8 | 17.4 | 0.00 | 0.00 | 0.00 | 60 | 1011.0 |
| 20260903230954 | 89 | 138 | 7.8 | 17.4 | 0.00 | 0.00 | 0.00 | 60 | 1010.9 |
| 20260903230452 | 90 | 119 | 17.4 | 17.4 | 0.00 | 0.00 | 0.00 | 59 | 1010.8 |
| 20260903225522 | 91 | 144 | 8.7 | 13.0 | 0.00 | 0.00 | 0.00 | 57 | 1010.8 |
| 20260903225023 | 91 | 127 | 8.7 | 13.0 | 0.00 | 0.00 | 0.00 | 57 | 1010.7 |
| 20260903224522 | 91 | 171 | 7.0 | 14.8 | 0.00 | 0.00 | 0.00 | 57 | 1010.7 |
| 20260903224022 | 91 | 132 | 9.6 | 15.6 | 0.00 | 0.00 | 0.00 | 57 | 1010.8 |
| 20260903223022 | 91 | 162 | 9.6 | 18.2 | 0.00 | 0.00 | 0.00 | 57 | 1010.7 |
| 20260903222524 | 92 | 141 | 10.4 | 18.2 | 0.00 | 0.00 | 0.00 | 57 | 1010.6 |
| 20260903222022 | 91 | 133 | 7.8 | 14.8 | 0.00 | 0.00 | 0.00 | 57 | 1010.7 |
| 20260903221522 | 92 | 171 | 7.0 | 18.2 | 0.00 | 0.00 | 0.00 | 56 | 1010.7 |
| 20260903221022 | 92 | 163 | 11.3 | 18.2 | 0.00 | 0.00 | 0.00 | 56 | 1010.7 |
| 20260903220522 | 91 | 140 | 14.8 | 17.4 | 0.00 | 0.00 | 0.00 | 57 | 1010.6 |
| 20260903220022 | 91 | 138 | 9.6 | 17.4 | 0.00 | 0.00 | 0.00 | 58 | 1010.8 |
| 20260903214952 | 92 | 188 | 10.4 | 15.6 | 0.00 | 0.00 | 0.00 | 57 | 1010.7 |
| 20260903214522 | 92 | 175 | 10.4 | 15.6 | 0.00 | 0.00 | 0.00 | 58 | 1010.7 |
| 20260903214022 | 91 | 144 | 11.3 | 15.6 | 0.00 | 0.00 | 0.00 | 58 | 1010.7 |
| 20260903213021 | 91 | 133 | 14.8 | 17.4 | 0.00 | 0.00 | 0.00 | 59 | 1010.8 |
| 20260903212452 | 91 | 128 | 17.4 | 18.2 | 0.00 | 0.00 | 0.00 | 59 | 1010.7 |
| 20260903212022 | 90 | 131 | 11.3 | 18.2 | 0.00 | 0.00 | 0.00 | 62 | 1010.9 |
| 20260903211521 | 89 | 118 | 14.8 | 17.4 | 0.00 | 0.00 | 0.00 | 63 | 1010.9 |
| 20260903211021 | 90 | 146 | 13.9 | 17.4 | 0.00 | 0.00 | 0.00 | 62 | 1011.0 |
| 20260903210521 | 90 | 145 | 11.3 | 17.4 | 0.00 | 0.00 | 0.00 | 62 | 1011.0 |
| 20260903210021 | 90 | 119 | 15.6 | 17.4 | 0.00 | 0.00 | 0.00 | 62 | 1011.1 |
| 20260903205521 | 89 | 140 | 10.4 | 17.4 | 0.00 | 0.00 | 0.00 | 63 | 1011.2 |
| 20260903204521 | 90 | 141 | 9.6 | 13.9 | 0.00 | 0.00 | 0.00 | 61 | 1011.3 |
| 20260903204021 | 90 | 120 | 8.7 | 12.2 | 0.00 | 0.00 | 0.00 | 61 | 1011.3 |
| 20260903203520 | 90 | 175 | 8.7 | 15.6 | 0.00 | 0.00 | 0.00 | 62 | 1011.4 |
| 20260903203020 | 90 | 142 | 9.6 | 15.6 | 0.00 | 0.00 | 0.00 | 62 | 1011.5 |
| 20260903202020 | 90 | 126 | 7.0 | 17.4 | 0.00 | 0.00 | 0.00 | 61 | 1011.5 |
| 20260903201020 | 91 | 160 | 9.6 | 18.2 | 0.00 | 0.00 | 0.00 | 60 | 1011.5 |
| 20260903200520 | 90 | 119 | 13.9 | 18.2 | 0.00 | 0.00 | 0.00 | 61 | 1011.5 |
| 20260903195520 | 92 | 157 | 8.7 | 14.8 | 0.00 | 0.00 | 0.00 | 57 | 1011.7 |
| 20260903195020 | 91 | 165 | 9.6 | 13.9 | 0.00 | 0.00 | 0.00 | 57 | 1011.8 |
| 20260903194520 | 91 | 164 | 13.0 | 13.0 | 0.00 | 0.00 | 0.00 | 57 | 1011.8 |
| 20260903194020 | 91 | 142 | 10.4 | 13.0 | 0.00 | 0.00 | 0.00 | 58 | 1011.9 |